Weather Roundup
Issued by NWS Springfield, MO

Home | Current Version | Previous Version | Text Only | Print | Product List | Glossary On
Versions: 1 2 3 4 5 6 7 8 9 10 11 12 13 14 15 16 17 18 19 20 21 22 23 24 25 26 27 28 29 30 31 32 33 34 35 36 37 38 39 40 41 42 43 44 45 46 47 48 49 50
000
NZUS99 KSGF 052007
HRRSGF

HOURLY WEATHER
NATIONAL WEATHER SERVICE SPRINGFIELD MO
200 PM CST THU MAR 05 2015

......SGF CWA......

CITY           SKY/WX    TMP DP  RH WIND       PRES   REMARKS
SPRINGFIELD    SUNNY     30  11  45 NW9       30.49  WCI  22
JOPLIN         SUNNY     33  14  45 VRB6      30.53  WCI  28
WEST PLAINS    SUNNY     30   6  36 NW16G25   30.48  WCI  19
ROLLA          SUNNY     27  10  49 N9        30.48  WCI  18
OSAGE BEACH    SUNNY     28   7  40 NW7       30.52F WCI  21
BRANSON        SUNNY     32   9  37 NW13G22   30.50F WCI  22

......SURROUNDING SGF CWA......

CITY           SKY/WX    TMP DP  RH WIND       PRES   REMARKS
CHANUTE        SUNNY     36  12  37 CALM      30.50
PARSONS        SUNNY     36  14  40 VRB3      30.52
COFFEYVILLE    SUNNY     38  14  37 NW7       30.52  WCI  33
EMPORIA        SUNNY     33  13  43 S9        30.47  WCI  25
GROVE OK       SUNNY     37  16  41 NW8       30.54F WCI  31
ROGERS AR      SUNNY     34  14  43 NE3       30.50
SILOAM SPRINGS SUNNY     36  16  44 N9        30.52F WCI  29
HARRISON AR    SUNNY     32  10  40 N16G22    30.48  WCI  21
NEAR YELLVILLE SUNNY     34   9  35 N8G17     30.51F WCI  27

......KANSAS AND MISSOURI......

CITY           SKY/WX    TMP DP  RH WIND       PRES   REMARKS
KANSAS CTY INT SUNNY     29   3  33 NW7       30.51  WCI  22
DOWNTOWN KC    SUNNY     31   2  29 VRB5      30.53  WCI  26
COLUMBIA       SUNNY     27  11  51 N9        30.52  WCI  18
SEDALIA        SUNNY     26   9  48 N10       30.54  WCI  16
ST JOSEPH      SUNNY     26   1  34 CALM      30.54
ST LOUIS       MOSUNNY   25  10  53 NW10G18   30.54F WCI  15
SPIRIT OF STL  MOSUNNY   25  10  53 NW9       30.54  WCI  15
KIRKSVILLE     SUNNY     23   2  40 MISG      30.51
WICHITA        MOSUNNY   42  16  34 W10       30.44
TOPEKA         SUNNY     32   4  30 CALM      30.51
OLATHE         SUNNY     30   3  31 VRB3      30.50

......TENNESSEE......

CITY           SKY/WX    TMP DP  RH WIND       PRES   REMARKS
MEMPHIS        MOSUNNY   29  13  51 N16       30.50  WCI  17
NASHVILLE      CLOUDY    25  18  74 N10G17    30.43  WCI  15

......ARKANSAS.......

CITY           SKY/WX    TMP DP  RH WIND       PRES   REMARKS
FAYETTEVILLE   SUNNY     35  17  47 N9G18     30.51  WCI  28
FT SMITH       SUNNY     40  17  39 VRB3G16   30.54
LITTLE ROCK    MOSUNNY   37  11  34 N15       30.53  WCI  28

......OKLAHOMA.......

CITY           SKY/WX    TMP DP  RH WIND       PRES   REMARKS
TULSA          MOSUNNY   42  14  32 VRB3      30.52
PONCA CITY     SUNNY     42  14  32 VRB6      30.50
MCALESTER      MOSUNNY   37  17  44 NW7       30.56  WCI  32
OKLAHOMA CITY  SUNNY     39  13  34 W7        30.52  WCI  34

......IOWA............

CITY           SKY/WX    TMP DP  RH WIND       PRES   REMARKS
DES MOINES     SUNNY     18  -3  39 VRB5      30.51  WCI  11
QUAD CITIES    SUNNY     12   0  58 W9        30.55  WCI   0

......ILLINOIS........

CITY           SKY/WX    TMP DP  RH WIND       PRES   REMARKS
QUINCY         SUNNY     16   1  51 NW9       30.54  WCI   4
CHICAGO        SUNNY     15  -3  44 W12       30.47S WCI   2




USA.gov is the U.S. government's official web portal to all federal, state and local government web resources and services.